Theta_e
300 300 300 301 301 301 300 301 301 303 304 302 302 302 302 303 303 302 303 304 304 304 304 304 305 306 306 306 307 308 308 312 314 317 323 322 322 322 324 325 327 328 328 327 325 327 329 333 338 336 335 336 343 342
298 299 300 301 301 301 300 301 303 302 302 302 301 301 301 302 301 302 303 303 304 305 304 303 304 304 304 305 306 306 308 309 311 319 322 324 327 325 324 326 325 330 326 326 326 327 332 329 340 337 344 345 345 345
299 300 301 301 301 301 301 303 303 302 301 300 301 301 300 301 302 302 303 302 303 304 304 304 304 303 303 303 304 306 306 307 308 310 313 317 326 326 328 326 327 327 328 329 327 327 329 334 339 343 343 345 345 343
302 302 302 302 301 301 302 302 303 301 302 300 301 300 300 301 301 301 302 303 303 303 305 304 303 304 304 304 304 304 305 306 310 307 309 313 321 326 327 329 333 327 330 331 332 330 333 338 341 343 345 345 343 343
302 302 302 302 301 301 301 302 302 302 302 301 299 301 300 300 301 302 302 302 302 303 305 305 303 304 304 304 305 305 306 307 307 308 309 313 318 323 325 327 330 331 333 336 332 333 340 336 342 345 345 343 342 342
302 303 303 303 303 302 302 301 302 303 303 302 300 299 300 301 300 302 304 303 302 302 304 306 305 306 306 307 309 306 307 307 307 309 309 311 310 319 323 330 329 334 334 336 341 340 340 344 343 343 343 341 340 339
302 303 302 302 303 303 302 302 303 304 304 304 302 302 300 301 302 303 305 304 303 303 302 306 309 308 310 310 311 308 306 307 307 309 311 312 318 321 322 326 329 334 331 334 337 338 341 343 345 342 340 338 332 331
302 302 303 303 302 303 303 302 303 304 305 305 304 303 302 302 301 302 302 301 302 302 303 307 309 310 309 311 310 308 308 310 311 311 313 320 321 320 324 324 325 329 332 334 338 336 339 339 339 338 334 331 332 332
302 303 303 303 302 303 304 304 304 305 306 306 305 304 304 303 304 304 302 303 303 304 307 307 311 314 311 313 315 313 311 312 312 313 317 320 323 323 322 325 329 331 333 334 335 334 334 333 332 331 331 330 330 330
302 302 302 302 302 303 304 305 305 306 306 305 304 305 307 305 303 302 304 305 304 303 301 305 307 311 309 314 314 314 315 317 319 319 319 321 323 321 321 324 325 327 330 331 333 335 332 331 330 330 329 328 328 327
302 302 302 302 303 303 304 305 305 305 305 304 306 307 306 305 305 307 308 309 308 309 305 306 305 308 312 316 316 315 314 317 321 320 321 323 326 324 324 323 327 329 330 329 330 329 329 329 330 330 330 329 330 330
300 301 302 302 303 304 305 305 307 306 306 305 305 305 305 307 309 310 310 308 309 311 308 311 313 309 315 315 315 314 315 313 320 317 319 319 320 319 324 325 327 330 331 331 331 331 331 331 331 331 331 332 332 331
301 302 303 304 304 305 306 306 307 307 306 305 306 306 306 307 309 310 314 310 310 310 310 315 317 317 317 315 317 316 313 316 317 319 317 316 320 325 326 328 328 327 328 329 329 329 329 329 328 328 329 328 328 328
303 303 304 304 305 305 306 307 308 308 310 313 314 317 316 314 308 308 310 311 313 312 315 316 317 318 318 316 317 316 317 320 317 319 317 321 322 325 326 328 328 328 326 326 326 327 326 326 326 325 326 326 326 327
303 303 305 307 305 306 307 308 308 310 313 315 314 319 315 315 315 316 318 316 316 315 315 316 319 319 321 322 321 322 321 318 315 319 322 321 322 325 324 325 326 328 327 326 325 324 323 323 323 323 324 324 325 325
304 306 307 306 306 307 308 309 311 313 313 314 314 314 314 316 317 316 317 317 317 314 315 317 323 323 323 321 320 319 319 318 318 320 321 322 323 323 327 327 327 325 325 323 323 322 323 323 324 323 323 323 323 323
306 309 307 306 307 308 308 311 312 312 314 314 315 313 316 314 316 316 316 318 317 319 322 321 321 323 319 320 318 318 321 319 318 320 321 323 323 323 326 327 327 325 322 320 320 321 322 323 324 324 326 324 323 323
308 309 307 306 307 310 311 311 311 312 314 313 314 314 316 317 316 317 316 318 319 319 320 319 318 320 320 322 322 321 321 322 323 324 324 322 323 323 324 328 327 324 321 320 320 320 319 317 317 317 318 320 323 323
308 308 308 307 307 310 314 314 312 315 315 313 314 317 318 319 320 319 319 319 318 318 319 320 320 320 321 320 321 321 320 321 323 324 324 321 321 323 325 325 325 325 322 322 321 321 321 322 320 318 317 316 316 318
309 309 307 308 309 313 316 316 311 315 319 318 317 320 320 320 320 319 320 320 318 318 319 319 319 319 321 319 318 319 319 320 322 326 325 323 321 322 325 325 324 323 322 322 321 320 320 319 319 319 318 317 317 316
311 311 310 309 312 313 315 317 319 317 318 321 321 321 322 319 320 321 321 320 320 321 320 318 318 318 317 318 319 322 323 323 323 322 323 326 324 324 323 323 323 322 322 320 319 319 319 319 319 318 318 318 317 316
312 309 312 312 315 315 319 314 318 317 321 321 321 320 321 321 320 320 319 321 321 320 319 320 322 321 323 323 322 321 321 321 322 321 319 319 321 321 322 320 321 319 319 321 320 319 319 318 318 317 316 317 317 317
311 311 315 316 319 317 319 315 323 322 320 319 320 319 320 320 320 318 320 320 321 318 319 320 320 320 321 319 318 319 317 318 320 322 322 320 318 317 317 317 317 318 320 320 320 319 319 316 318 317 317 317 316 317
311 314 320 323 323 321 322 324 322 323 322 321 320 319 319 320 319 319 320 320 323 318 318 319 318 319 318 319 318 318 317 316 317 317 317 316 317 317 315 314 314 314 315 315 315 316 316 315 315 315 316 318 317 316
316 320 322 317 323 325 322 322 321 321 321 320 320 320 320 320 319 320 321 321 318 317 317 315 315 316 316 316 315 315 315 315 316 316 315 316 316 316 316 314 313 312 312 313 314 315 315 315 315 315 315 315 316 317
322 323 323 323 324 324 325 324 323 323 323 321 320 322 322 320 321 321 320 316 312 312 314 314 313 313 312 311 312 312 312 312 313 313 311 310 310 311 312 312 311 309 308 309 311 312 313 313 313 313 313 314 314 314
322 322 322 322 323 323 324 323 323 322 322 323 322 321 321 321 322 318 315 310 310 310 309 309 308 308 309 307 307 307 307 309 310 310 309 307 306 305 306 306 306 303 305 305 306 309 310 311 311 312 313 313 314 314
324 324 324 321 323 322 322 322 321 321 320 319 319 321 322 321 316 311 310 308 309 308 307 307 306 306 306 306 305 305 305 305 306 306 308 306 305 303 302 302 301 300 301 301 301 303 303 306 307 308 308 309 311 311
323 323 323 321 321 322 322 323 321 318 315 317 319 316 308 307 305 305 306 305 307 306 306 306 304 304 303 304 304 304 302 302 303 304 304 304 303 302 300 300 299 299 299 299 299 298 297 299 302 303 305 306 306 306
325 323 324 322 321 322 322 320 316 312 310 308 307 307 308 308 306 305 304 304 304 305 305 305 303 302 302 301 301 301 301 300 299 300 301 301 300 299 298 298 298 297 297 297 297 297 297 297 298 299 301 302 303 302
324 323 323 323 323 321 321 317 315 314 314 313 311 311 311 310 308 305 304 303 304 305 304 304 303 300 299 299 299 299 298 298 298 298 297 298 298 297 297 296 296 296 296 296 296 296 296 296 297 297 298 298 299 299
323 323 322 320 323 321 320 320 318 318 316 315 315 313 313 312 314 309 304 305 304 303 301 301 301 299 297 297 297 297 296 297 295 295 295 295 295 294 295 295 295 295 295 295 295 295 295 295 295 295 295 295 296 296
324 321 322 322 322 322 322 321 320 320 319 319 317 316 316 316 314 308 303 301 301 301 300 300 298 297 296 296 296 296 296 296 293 293 292 291 291 291 292 292 292 293 293 294 294 294 293 293 293 293 293 293 293 293
Wind_Speed
24 24 24 24 25 25 27 28 29 30 26 21 18 16 16 18 16 11 10 13 13 5 11 14 17 15 11 8 8 4 7 3 6 10 8 12 13 16 17 21 24 19 17 19 18 22 25 1 5 16 13 11 5 6
25 25 25 25 26 27 27 27 28 24 22 15 14 16 14 16 16 14 10 10 11 9 10 16 17 18 25 22 12 9 11 4 4 4 3 6 7 8 13 17 21 18 16 15 18 17 4 23 18 10 3 3 2 4
24 24 24 24 25 25 23 27 27 20 17 13 16 13 12 13 16 16 14 9 7 6 12 18 18 23 24 27 26 12 10 10 3 5 3 4 5 7 9 15 17 19 18 18 16 21 18 15 15 10 9 8 4 4
24 24 24 24 24 23 23 25 24 19 16 11 13 11 6 7 5 12 13 13 10 5 5 9 10 17 20 17 22 24 21 9 1 3 2 3 4 8 10 7 10 14 9 18 17 14 14 14 13 10 7 7 9 12
23 23 23 22 22 21 22 22 21 19 18 12 9 7 5 1 3 6 12 14 14 8 5 10 22 25 22 25 20 22 21 16 8 2 2 3 4 5 8 12 13 15 14 12 13 15 14 17 15 12 12 13 16 21
22 23 24 23 22 20 18 18 21 21 18 14 10 7 5 5 6 7 4 12 17 14 3 4 8 12 9 13 20 20 16 10 10 4 4 4 6 3 4 7 16 12 8 13 10 11 15 6 13 14 15 16 17 19
23 24 25 25 24 22 19 18 19 21 18 15 12 9 7 7 7 7 4 2 5 6 1 3 4 1 12 14 6 10 15 4 4 3 5 4 3 3 3 11 16 4 13 14 15 11 9 16 16 17 20 19 18 20
24 25 26 27 28 26 22 20 20 25 19 17 12 10 9 8 7 11 14 20 10 4 3 3 4 3 5 4 6 6 7 5 7 3 4 7 5 5 6 14 17 19 19 16 14 15 9 13 18 20 21 22 22 19
25 27 28 29 30 30 23 20 21 25 22 16 13 7 5 6 5 4 7 7 17 7 2 3 3 2 3 6 3 6 6 4 3 6 4 4 5 7 11 13 14 16 9 7 18 14 18 20 21 22 23 22 20 17
28 29 31 32 31 29 19 25 26 24 18 10 3 4 3 3 5 3 6 3 2 2 3 3 2 3 4 5 2 3 3 3 4 6 4 4 8 15 14 12 11 15 16 15 20 22 24 22 19 19 18 17 16 15
31 32 33 33 32 25 21 28 27 18 4 2 3 2 3 5 3 3 2 4 4 4 4 4 7 4 4 4 4 5 2 3 3 3 5 3 3 6 2 7 9 9 8 15 17 18 19 20 19 18 18 17 15 14
31 32 32 31 28 21 29 28 20 10 2 2 3 2 3 2 2 3 2 2 4 3 2 3 3 6 3 2 3 4 3 2 4 3 2 3 4 9 5 8 9 7 12 19 20 19 21 20 18 18 16 15 14 16
29 29 30 29 18 28 31 26 15 8 4 1 2 2 1 1 2 3 3 3 3 3 4 4 5 4 5 3 3 2 4 3 4 3 2 3 11 4 5 10 12 13 16 18 21 19 21 19 21 18 13 15 15 13
27 28 29 21 21 30 29 16 8 2 2 2 4 4 4 3 2 4 5 6 4 5 6 4 3 2 0 3 4 3 4 3 1 3 2 3 10 4 10 15 15 16 16 15 15 16 16 15 13 15 14 11 12 10
26 27 17 13 28 26 17 11 3 1 3 4 4 5 4 8 10 8 6 4 4 4 6 3 3 3 4 4 1 5 4 5 5 4 3 7 12 10 11 10 13 13 14 12 14 13 13 14 13 13 12 12 11 10
26 11 8 25 26 18 11 4 3 2 2 3 4 5 8 7 10 11 13 10 8 6 3 3 4 3 7 4 6 8 3 5 3 2 5 7 10 12 10 13 13 11 11 11 14 13 13 15 14 14 13 12 12 11
13 5 19 24 22 8 13 3 3 4 4 4 3 5 8 6 8 9 10 11 9 5 5 3 7 6 4 5 5 4 3 2 3 3 3 6 8 7 8 11 12 11 12 16 16 15 15 15 15 14 11 11 11 10
4 14 20 22 16 9 7 8 4 4 6 3 4 7 6 3 5 8 8 9 8 7 9 6 5 8 5 6 4 4 3 5 6 6 6 5 6 5 7 9 13 14 14 14 15 16 16 16 14 11 12 10 10 10
17 16 19 16 9 4 4 5 5 4 3 3 5 6 5 7 6 5 6 10 13 9 3 4 6 4 4 3 5 7 7 6 5 4 7 8 9 7 9 10 10 11 12 11 11 12 12 12 11 11 10 9 10 9
7 8 14 9 7 3 2 3 2 2 4 5 5 8 5 7 7 10 10 9 9 6 7 5 4 3 5 4 4 3 4 5 7 8 9 8 9 9 8 5 10 11 10 9 9 4 8 8 9 8 9 8 7 8
5 9 8 7 3 5 3 3 2 3 4 4 7 6 8 9 12 13 12 9 9 4 4 4 3 3 4 4 4 11 7 9 6 6 8 9 10 9 10 10 8 7 5 5 6 7 1 8 7 5 3 5 5 6
4 10 4 4 2 1 2 3 3 3 3 3 6 5 8 10 10 11 10 12 7 7 4 3 5 6 7 13 13 16 15 14 14 11 10 9 10 9 7 10 8 5 7 6 7 6 5 6 6 4 2 4 2 4
6 4 2 2 1 2 0 1 2 1 1 3 3 4 5 7 7 8 7 10 8 9 8 7 7 9 12 13 15 18 17 15 10 14 13 12 14 13 10 12 11 10 8 13 10 9 9 10 7 7 5 1 0 1
6 3 3 3 3 1 1 2 1 2 1 0 1 4 3 3 3 4 6 6 8 12 11 11 12 8 11 16 11 15 18 17 14 14 14 15 11 14 15 15 15 16 15 13 12 10 10 10 10 10 7 4 2 3
2 6 3 5 1 3 2 1 1 2 1 1 1 2 1 1 2 3 4 6 10 9 10 13 12 9 9 9 11 15 19 17 14 10 16 13 7 3 6 11 14 17 15 12 12 13 12 11 10 10 9 9 8 7
5 4 6 7 5 6 5 4 5 5 4 2 1 1 2 2 2 4 3 6 7 7 9 11 10 9 9 14 9 12 16 17 13 11 14 15 15 13 10 8 8 14 18 16 15 14 13 13 13 13 11 11 8 11
5 6 4 2 4 6 3 4 4 4 5 5 5 5 3 2 3 3 3 7 3 9 13 14 15 13 10 13 14 14 14 11 10 7 8 11 14 16 15 13 13 16 15 16 17 15 16 15 15 15 14 13 10 10
3 5 8 8 5 5 6 5 5 6 4 4 3 4 4 6 4 3 3 13 12 8 12 15 16 15 13 13 13 14 14 14 10 11 6 5 10 13 14 13 13 16 15 14 17 16 17 15 14 13 13 13 11 12
2 3 3 5 4 4 5 6 6 5 7 3 3 4 4 5 6 10 9 20 16 15 13 13 17 16 14 13 12 11 14 15 15 12 12 8 10 13 14 14 14 15 15 16 13 13 16 14 12 12 12 12 8 8
2 3 2 2 3 4 4 4 5 6 10 9 6 5 4 3 3 4 1 5 6 9 11 12 13 16 14 14 13 15 11 14 15 14 9 9 11 12 13 14 15 16 16 16 16 15 15 15 11 11 10 11 9 13
2 2 2 1 2 2 5 9 9 6 4 5 6 5 5 5 6 7 5 5 5 9 14 14 15 14 15 15 14 14 13 15 14 13 12 11 11 12 13 14 15 16 16 15 14 13 15 15 13 13 12 11 11 10
2 3 4 2 2 4 5 4 4 2 4 5 4 4 4 4 3 3 3 7 9 10 10 14 14 14 14 13 12 11 9 11 12 12 14 13 14 15 17 16 16 15 15 14 13 13 14 14 13 14 13 13 13 13
2 2 2 1 3 4 5 4 4 4 3 3 2 1 3 3 5 3 3 6 8 10 12 14 14 14 13 13 12 11 10 8 7 11 14 15 15 14 14 15 16 15 15 14 14 13 13 14 15 15 15 15 16 16
Wind_Direction
325 327 329 328 327 326 328 326 329 324 318 306 293 286 272 259 249 233 247 226 217 257 265 247 250 262 250 251 270 339 296 191 241 251 252 233 237 224 223 226 210 202 199 215 222 228 232 222 183 217 232 235 261 263
326 328 328 328 328 330 331 334 331 333 334 324 315 309 288 259 246 224 246 222 227 240 272 284 270 259 256 260 271 305 287 314 333 283 337 301 267 245 223 219 232 205 210 218 209 219 308 208 232 214 269 282 252 264
327 328 328 330 331 333 340 342 343 342 338 333 337 327 310 277 227 218 229 233 221 263 274 249 249 251 246 241 243 256 243 262 241 341 335 298 280 293 231 235 231 223 233 230 237 211 219 224 237 251 268 260 251 198
329 330 331 333 332 334 339 347 351 352 344 332 345 351 352 42 189 203 216 230 229 278 275 279 276 249 247 246 230 230 244 246 36 69 1 285 289 347 278 306 289 249 243 226 244 245 203 215 228 241 225 182 149 139
335 335 333 330 331 336 341 354 356 352 353 336 334 344 336 303 202 216 238 240 235 245 294 300 299 282 248 235 223 215 218 227 221 130 252 251 283 299 281 279 263 255 244 240 235 213 213 210 202 182 159 157 152 141
340 340 341 336 332 329 322 326 335 338 340 333 324 316 309 278 251 245 260 221 227 227 265 289 338 273 277 228 220 217 211 213 223 193 216 251 250 268 277 270 261 265 289 286 279 309 228 228 168 163 150 147 147 141
336 338 342 342 337 329 324 323 329 331 329 322 310 296 281 265 243 243 343 58 172 179 260 268 244 280 261 213 186 189 199 177 181 220 217 249 262 207 264 253 266 242 311 291 262 261 208 171 163 154 143 129 121 123
331 333 335 338 339 332 318 314 319 323 325 322 302 274 264 259 257 263 257 233 213 204 217 263 273 268 226 178 152 153 169 171 196 212 231 226 192 202 247 257 254 280 288 271 225 207 182 150 142 141 136 136 131 124
325 328 329 334 336 335 327 323 320 322 323 317 301 261 243 223 228 205 226 225 203 235 260 232 257 299 220 201 142 175 171 179 203 209 230 220 200 218 240 266 297 291 267 232 183 145 139 136 136 137 134 128 121 119
322 324 326 331 333 332 325 331 331 326 319 308 171 184 224 197 226 244 172 170 185 168 229 249 221 258 305 172 144 166 174 224 211 207 192 234 246 252 241 280 275 267 248 192 165 152 140 131 129 127 122 115 115 119
318 320 323 328 331 328 327 335 333 334 335 162 203 237 316 283 228 209 228 219 193 222 200 222 198 215 219 201 189 202 195 217 228 187 218 246 243 246 235 245 241 223 198 135 128 127 127 119 113 108 103 100 98 96
317 319 322 327 330 326 336 337 332 329 239 225 270 295 297 276 251 261 220 221 228 259 255 233 209 207 234 145 175 184 230 222 232 164 217 279 262 277 207 177 175 175 138 120 112 105 100 97 99 98 100 97 93 91
318 321 323 328 323 332 335 336 338 315 216 179 209 212 333 86 305 279 311 252 251 230 244 247 234 223 173 180 223 172 221 221 170 154 182 291 285 82 177 134 102 91 87 93 92 90 86 86 88 92 97 94 95 90
320 322 323 324 330 335 332 335 346 126 231 310 326 348 354 3 294 252 256 262 253 216 247 313 303 298 308 188 209 188 222 162 67 52 45 269 21 35 64 90 91 79 69 77 89 85 85 85 84 83 84 90 97 95
324 325 327 331 332 333 332 346 30 165 309 3 0 5 351 315 305 302 306 279 271 308 318 275 232 229 210 234 205 4 56 49 30 2 356 14 3 62 104 64 79 82 82 79 82 84 86 88 91 90 86 88 91 90
336 344 330 334 337 341 350 2 352 344 51 19 36 337 320 313 332 338 342 342 0 333 265 232 284 9 35 22 19 29 45 18 320 342 31 4 21 23 63 95 92 86 82 76 72 86 98 93 90 91 89 87 86 86
342 337 333 345 346 9 17 2 343 35 24 23 353 303 331 301 317 318 342 346 336 344 10 19 34 20 38 20 33 16 347 339 344 353 17 22 24 23 61 83 90 89 93 92 94 93 92 95 98 98 94 95 96 90
312 330 341 351 360 358 3 16 41 38 26 1 324 338 317 287 352 5 341 349 8 16 41 48 35 26 31 6 11 11 356 1 37 39 37 25 56 60 42 64 77 92 102 101 99 96 96 97 92 90 92 100 107 100
317 329 348 357 10 11 6 42 8 45 352 295 288 327 319 323 356 340 346 8 31 33 38 34 48 24 7 19 2 22 21 10 356 4 50 47 47 59 69 71 76 85 93 77 73 73 74 65 67 71 76 74 72 65
334 339 350 3 38 360 57 60 24 325 359 339 315 343 343 355 350 22 30 17 47 20 34 35 37 4 355 17 360 341 351 359 13 50 54 62 56 91 80 91 94 102 96 95 86 79 96 88 69 62 55 54 66 86
356 336 359 24 23 47 45 347 49 4 329 341 6 12 31 40 38 32 28 27 51 45 64 34 39 28 283 252 346 352 6 10 39 45 41 64 67 75 77 70 70 85 123 99 105 127 215 64 62 57 87 94 93 89
321 346 354 10 38 61 85 28 331 345 310 348 22 35 37 46 40 35 35 44 51 41 30 348 354 353 356 22 17 26 3 30 42 42 48 61 57 56 65 77 83 78 68 55 25 33 51 58 46 57 16 108 148 109
350 352 339 353 171 67 341 274 291 25 346 20 357 42 29 48 36 29 48 44 49 42 36 33 50 39 38 42 46 38 32 35 50 47 38 63 59 41 47 45 30 16 7 17 6 20 29 18 7 351 7 272 134 166
3 7 8 19 9 17 243 237 231 288 297 251 35 72 48 45 35 52 53 41 15 39 44 28 34 57 54 44 43 35 17 35 53 46 44 40 44 35 52 53 50 38 29 41 31 32 34 35 19 18 6 340 329 325
15 4 351 332 333 303 269 257 249 259 307 122 121 123 106 251 74 76 56 21 22 29 18 27 41 38 33 33 31 33 24 22 32 42 30 26 57 67 65 74 58 36 19 16 11 6 9 5 12 9 8 18 10 322
64 26 16 345 340 334 348 335 11 355 333 314 37 30 224 168 92 65 56 15 16 8 18 19 15 18 29 23 15 14 11 10 16 39 35 33 32 28 25 25 15 19 5 3 356 352 350 350 346 341 334 339 336 320
30 11 7 48 320 334 346 4 17 13 14 0 357 320 285 178 97 72 11 8 343 352 22 20 19 19 15 14 13 11 6 14 23 24 39 41 38 28 24 22 20 3 357 3 357 356 347 341 340 335 329 323 318 323
10 359 5 12 31 23 23 10 20 19 342 355 322 296 359 29 55 42 355 334 332 6 25 26 18 15 11 10 10 10 12 2 14 6 333 45 43 25 11 10 14 6 359 7 3 2 358 349 344 339 336 330 336 347
4 356 309 22 18 50 28 14 28 19 329 295 346 45 58 18 18 3 335 346 27 25 10 15 16 12 13 11 17 22 17 13 10 10 3 359 3 6 4 4 4 3 360 354 359 6 357 346 340 336 329 323 330 319
2 334 332 32 29 43 51 47 104 115 81 81 95 101 102 113 153 139 339 332 348 13 8 13 19 11 8 7 7 3 20 17 10 1 354 350 360 2 3 2 358 356 354 350 348 349 358 346 348 345 346 336 350 328
317 304 336 348 74 100 124 128 129 118 81 96 119 138 146 174 204 231 264 314 334 15 11 9 10 16 4 6 5 359 359 3 7 9 5 359 13 6 358 351 350 348 348 349 352 357 359 353 357 353 353 346 350 344
296 336 334 5 116 148 156 190 191 177 162 184 183 190 172 206 170 118 20 354 12 17 22 8 11 9 5 0 8 12 8 21 24 21 18 13 4 355 346 345 346 347 349 347 350 353 356 357 357 358 353 353 348 344
314 353 352 37 143 182 199 214 192 196 192 235 184 73 359 43 75 74 82 37 29 18 13 12 10 11 14 17 19 16 19 37 48 37 22 16 13 7 357 357 352 348 347 346 348 351 353 352 346 345 341 339 336 333